Location: Eenumerhoogte
(53.3420°N, 6.7843°E)
Time: 19:58:40
(UTC+00:00)

Geosat - Pass Details

Date: 15 May 2026
Orbit: 758 x 760 km, 108.0° (Epoch: 8 June)

Event Time Altitude Azimuth Distance (km) Brightness Sun altitude
Rises 22:24:40 0° 32° (NNE) 3,232 7.9 -16.3°
Reaches altitude 10° 22:26:57 10° 33° (NNE) 2,303 7.0 -16.4°
Maximum altitude 22:31:59 82° 121° (ESE) 775 3.9 -16.6°
Enters shadow 22:35:38 19° 209° (SSW) 1,759 5.4 -16.7°
